Location: Newark
(53.3867°N, 14.6147°E)
Time: 00:02:17
(UTC+00:00)

ISS - Visible Passes

Search period start: 10 May 2021 00:00
Search period end: 20 May 2021 00:00
Orbit: 417 x 421 km, 51.6° (Epoch: 09 May)

Date Brightness Start Highest point End Pass type
(mag) Time Alt. Az. Time Alt. Az. Time Alt. Az.
10 May -3.8 00:50:23 25° WSW 00:52:09 64° S 00:55:31 10° E visible
10 May -3.5 02:25:30 10° W 02:28:48 49° SSW 02:32:05 10° ESE visible
11 May -3.8 00:04:20 53° SSW 00:04:46 59° S 00:08:06 10° E visible
11 May -3.7 01:38:05 10° W 01:41:25 58° S 01:44:46 10° ESE visible
11 May -3.0 23:18:15 38° ESE 23:18:15 38° ESE 23:20:40 10° E visible
12 May -3.8 00:51:11 14° W 00:54:01 64° S 00:57:23 10° ESE visible
12 May -1.8 22:32:06 19° E 22:32:06 19° E 22:33:13 10° E visible
13 May -3.9 00:05:01 28° WSW 00:06:36 66° S 00:09:59 10° E visible
13 May -3.3 01:40:01 10° W 01:43:13 40° SSW 01:46:25 10° SE visible
13 May -1.1 21:45:44 10° E 21:45:44 10° E 21:45:44 10° E visible
13 May -3.9 23:18:36 52° SW 23:19:12 64° S 23:22:33 10° E visible
14 May -3.6 00:52:34 10° W 00:55:51 49° SSW 00:59:08 10° ESE visible
14 May -2.7 20:52:31 10° SSW 20:55:21 25° SSE 20:58:11 10° E visible
14 May -3.8 22:28:28 10° WSW 22:31:47 59° S 22:35:08 10° E visible
15 May -3.8 00:05:08 10° W 00:08:27 57° S 00:11:47 10° ESE visible
15 May -2.6 01:42:06 10° W 01:44:53 24° SSW 01:47:40 10° SSE visible
15 May -2.3 20:05:38 10° SSW 20:08:04 19° SE 20:10:31 10° E visible
15 May -3.7 21:41:06 10° WSW 21:44:24 51° SSE 21:47:41 10° E visible
15 May -3.9 23:17:42 10° W 23:21:03 64° S 23:24:24 10° ESE visible
16 May -3.0 00:54:32 10° W 00:57:35 31° SSW 01:00:37 10° SE visible
16 May -3.4 20:53:49 10° SW 20:57:01 41° SSE 21:00:14 10° E visible
16 May -3.9 22:30:17 10° W 22:33:38 66° S 22:36:59 10° E visible
17 May -3.4 00:07:02 10° W 00:10:14 40° SSW 00:13:25 10° SE visible
17 May -1.9 01:45:01 11° WSW 01:46:24 13° SW 01:47:59 10° S visible
17 May -3.0 20:06:36 10° SW 20:09:40 33° SSE 20:12:44 10° E visible
17 May -3.8 21:42:52 10° WSW 21:46:13 64° S 21:49:34 10° E visible
17 May -3.6 23:19:35 10° W 23:22:51 49° SSW 23:22:54 49° SSW visible
18 May -3.8 20:55:27 10° WSW 20:58:47 59° S 21:02:07 10° E visible
18 May -3.8 22:32:08 10° W 22:35:28 57° S 22:36:28 38° SE visible
19 May -1.3 00:09:06 10° W 00:09:23 12° W 00:09:23 12° W visible
19 May -3.6 20:08:06 10° WSW 20:11:22 51° SSE 20:14:41 10° E visible
19 May -3.8 21:44:41 10° W 21:48:02 63° S 21:50:17 19° ESE visible
19 May -2.2 23:21:31 10° W 23:23:13 23° WSW 23:23:13 23° WSW visible
